TIANWANG 1B (TW-1B)
1 40927U 15051C   20008.39101038  .00014929  00000-0  19774-3 0  9995
2 40927  97.1127  58.4900 0007074   0.9860   9.7094 15.58354328241693
TIANWANG 1A (TW-1A)
1 40928U 15051D   20008.56246726  .00002849  00000-0  69135-4 0  9994
2 40928  97.1275  40.2433 0012338  58.1738  92.9016 15.41776952240573
LAPAN A2
1 40931U 15052B   20002.58753715  .00000638  00000-0 -24146-6 0  9996
2 40931   5.9928  85.5229 0013528  76.7647 283.7111 14.76622055230555
LQSAT
1 40958U 15057A   20008.34057775  .00000018  00000-0  10446-4 0  9990
2 40958  97.8760  76.7745 0017017 310.4389  49.5334 14.73103190228789
CHUBUSAT 2
1 41338U 16012B   20007.49432155  .00000306  00000-0  17058-4 0  9995
2 41338  31.0037 295.8685 0013780 311.5406  48.4048 15.00228215213399
CHUBUSAT 3
1 41339U 16012C   20008.17225857  .00000268  00000-0  14036-4 0  9991
2 41339  31.0131 289.3934 0013772 326.1886  33.7872 15.00397962213494
OUFTI-1
1 41458U 16025C   20008.09427934  .00001260  00000-0  67043-4 0  9997
2 41458  98.0994 110.3119 0165557  33.3879 327.7656 15.06364249203181
E-STAR-2
1 41459U 16025D   20008.22791281  .00001105  00000-0  59809-4 0  9991
2 41459  98.0983 109.9887 0166715  34.5099 326.6918 15.05963331203174
AAUSAT 4
1 41460U 16025E   20008.53426883  .00001620  00000-0  83490-4 0  9995
2 41460  98.0965 112.1072 0156235  24.2492 336.5976 15.08068410203381
NUSAT 1
1 41557U 16033B   20008.52550110  .00001118  00000-0  44062-4 0  9995
2 41557  97.4109  99.8154 0012202 300.8732  59.1307 15.27646982201200
BEESAT 4
1 41619U 16040W   20007.62078861  .00001259  00000-0  55442-4 0  9990
2 41619  97.3433  70.8197 0012064  37.2484 322.9588 15.23592562184757
PRATHAM
1 41783U 16059A   20008.13701955  .00000044  00000-0  17593-4 0  9992
2 41783  98.0416  67.9296 0034874 103.8007 256.7080 14.63030513175295
ALSAT 1N
1 41789U 16059G   20008.43000238  .00000034  00000-0  15348-4 0  9992
2 41789  98.0444  70.6638 0029675  91.6729 268.7876 14.64288320175468
NAYIF 1
1 42017U 17008BX  20007.87462890 +.00001382 +00000-0 +56489-4 0  9993
2 42017 097.3813 077.6647 0006723 159.0369 201.1146 15.26038093160903
MAX VALIER SAT
1 42778U 17036P   20008.11978302  .00000794  00000-0  37355-4 0  9993
2 42778  97.3291  66.0283 0011190 223.9137 136.1211 15.22337857141188
